{"data":{"norad_id":67843,"epoch":"2026-05-25T04:09:30.481344Z","epoch_age_seconds":57264,"freshness":"FRESH","line1":"1 67843U 26033Y   26145.17326946  .00015832  00000+0  58349-3 0  9998","line2":"2 67843  43.0005 194.8964 0003373 296.6414  63.4092 15.27584423 16373","mean_motion":15.27584423,"eccentricity":0.0003373,"inclination_deg":43.0005,"raan_deg":194.8964,"arg_perigee_deg":296.6414,"mean_anomaly_deg":63.4092,"bstar":0.00058349,"rev_number":1637,"period_min":94.266475771729,"perigee_km":480.72157841546,"apogee_km":485.35012562143,"semimajor_km":6861.1728520184,"source":"CELESTRAK","updated_at":"2026-05-25T13:38:21.722722Z"}}